Location: Waterloo
(50.7160°N, 4.3650°E)
Time: 14:27:17
(UTC+02:00)

ISS - Pass Details

Date: 04 August 2013
Orbit: 400 x 408 km, 51.6° (Epoch: 24 July)

Event Time Altitude Azimuth Distance (km) Brightness Sun altitude
Rises 22:19:19 0° 286° (WNW) 2,434 1.5 -8.2°
Reaches altitude 10° 22:21:36 10° 277° (W) 1,539 0.1 -8.5°
Maximum altitude 22:24:44 34° 211° (SSW) 724 -2.7 -8.9°
Enters shadow 22:27:23 13° 148° (SSE) 1,341 -1.8 -9.2°
